一网星座-0558星 (ONEWEB-0558)

导读

ONEWEB-0558是英国OneWeb星座中的低轨通信卫星,由空客防务与航天公司建造,于2023年3月26日发射入轨。卫星运行在约1200公里高度的近地轨道,质量约147公斤,设计寿命7年,配备Ku波段透明转发器,为全球提供高速宽带互联网接入服务,补充地面网络覆盖盲区,助力全球互联与数字化连通。

Basic Information
目录编号:
56059
目录名称:
ONEWEB-0558
国际标识:
2023-043P
轨道中心:
EARTH
卫星名称:
一网星座-0558星
卫星全名:
一网星座-0558星 (ONEWEB-0558)
卫星状态:
在轨 (已飞行1266 天)
发射日期:
2023-03-26 UTC
国别 :
英国 (GB)
星等 :
--
This satellite is enrolled in the Space Conjunction Data Service (SCDS) and the current flight risk assessment level is: No High Risk
Orbit Information
数据来源 国际轨道数据 AOE轨道数据
星历时间 2026-09-12T05:20:45+0800
8小时前
查看轨道信息
2026-09-11T09:00:00+0800
1天前
查看轨道信息
半长轴 7555.893km 7555.905km
偏心率 0.0001771 0.0002751
轨道倾角 87.926° 87.928°
近地点辐角 79.109° 45.291°
升交点赤经 226.718° 226.880°
平近点角 281.024° 243.118°
近地点 1176.417km 1175.689km
远地点 1179.095km 1179.847km
周期 108.940分钟 108.941分钟
每日圈数 13.218255 13.218224
Detailed Information
平衡模式:
三轴稳定
覆盖范围:
全球
运营商:
一网卫星公司
运营商所在国:
英国
制造商(研发单位):
一网卫星公司
制造商所在国:
英国
使用方式:
暂无
Satellite Introduction
OneWeb卫星网络由648颗重约125公斤的微型卫星组成,运行在1200公里的轨道上。 每颗卫星都能够提供至少每秒8千兆位的吞吐量,以使用其高吞吐量的Ku频段有效载荷为家庭和移动平台提供互联网接入。该卫星仍在工作。
2D Orbit Map
3D Orbit Map
Orbit Altitude Analysis Chart
Orbit Inclination Analysis Chart
Orbit Comprehensive Analysis Chart
View Comprehensive Chart
Conjunction Data List
Event ID Objects TCA Miss Dist (km) Collision Risk Probability Collision Risk Index (CRI) Action
CDM_260913-133704-532405-605921
2026-09-13T
13:37:22+0000
1.706 km
极远距离
4.370034E-6 低风险 0.48
Miss Distance Evolution Trend with All Objects
Collision Probability Evolution Trend with All Objects